Home   Weather   Lamia   Past weeks

Flag for Greece Past Weather in Lamia, Greece — Yesterday and Last 2 Weeks

Now
68 °F

Sunny.


Feels Like: 68 °F
Forecast: 49 / 84 °F
Wind: 8 mph from East

Location: Anchialos Airport

Current Time: Apr 27, 2017 at 12:20:10 pm

Latest Report: Apr 27, 2017 at 11:50 am


Visibility: 10 mi

Pressure: 30.07 "Hg

Humidity: 56%

Dew Point: 52 °F

Location of LamiaLocation

Past Weather in Lamia — Graph

°F

Lamia Temperature Yesterday

Maximum temperature yesterday: 70 °F (at 3:50 pm)
Minimum temperature yesterday: 45 °F (at 5:50 am)
Average temperature yesterday: 60 °F

High & Low Weather Summary for the Past Weeks

 TemperatureHumidityPressure
High77 °F (Apr 19, 3:50 pm)100% (Apr 17, 4:20 pm)30.21 "Hg (Apr 17, 4:20 pm)
Low41 °F (Apr 23, 6:50 am)19% (Apr 20, 6:50 pm)29.74 "Hg (Apr 13, 6:20 pm)
Average60 °F60%29.97 "Hg
* Reported Apr 12 11:20 am — Apr 27 11:20 am, Lamia, Weather by CustomWeather, © 2017

Note: Actual official high and low records may vary slightly from our data, if they occured in-between our weather recording intervals... More about our weather records

Advertising

Lamia Weather History for the Previous 24 Hours

Scroll right to see more
 ConditionsComfort  
Time TempWeatherWind HumidityBarometerVisibility
11:20 am
Thu, Apr 27
66 °FSunny.7 mph64%30.07 "Hg10 mi
10:50 am64 °FSunny.6 mph64%30.07 "Hg10 mi
10:20 am64 °FSunny.No wind68%30.07 "Hg10 mi
9:50 am64 °FSunny.No wind68%30.07 "Hg10 mi
9:20 am63 °FSunny.No wind68%30.07 "Hg10 mi
8:50 am59 °FSunny.No wind72%30.07 "Hg10 mi
8:20 am55 °FSunny.No wind77%30.07 "Hg10 mi
7:50 am50 °FSunny.No wind82%30.07 "Hg10 mi
7:20 am48 °FSunny.5 mph82%30.04 "Hg10 mi
6:50 am46 °FSunny.5 mph87%30.04 "Hg10 mi
6:20 am46 °FClear.5 mph87%30.04 "Hg10 mi
5:50 am46 °FClear.6 mph93%30.04 "Hg10 mi
4:50 am48 °FClear.6 mph87%30.04 "Hg10 mi
3:50 am48 °FClear.5 mph87%30.04 "Hg10 mi
2:50 am48 °FClear.6 mph94%30.07 "Hg10 mi
1:50 am50 °FClear.5 mph88%30.07 "Hg10 mi
12:50 am52 °FClear.6 mph88%30.07 "Hg10 mi
11:50 pm
Wed, Apr 26
54 °FClear.7 mph82%30.07 "Hg10 mi
10:50 pm55 °FClear.7 mph82%30.07 "Hg10 mi
9:50 pm59 °FClear.5 mph82%30.04 "Hg10 mi
8:50 pm61 °FClear.5 mph77%30.04 "Hg10 mi
8:20 pm61 °FClear.5 mph77%30.04 "Hg10 mi
7:50 pm63 °FSunny.6 mph73%30.01 "Hg10 mi
7:20 pm64 °FSunny.8 mph64%30.01 "Hg10 mi
6:50 pm66 °FSunny.8 mph60%30.01 "Hg10 mi
6:20 pm66 °FSunny.10 mph60%30.01 "Hg10 mi
5:50 pm68 °FSunny.10 mph60%30.04 "Hg10 mi
5:20 pm68 °FSunny.10 mph60%30.04 "Hg10 mi
4:50 pm70 °FSunny.10 mph53%30.04 "Hg10 mi
4:20 pm70 °FSunny.12 mph53%30.04 "Hg10 mi
3:50 pm70 °FSunny.10 mph57%30.07 "Hg10 mi
3:20 pm68 °FSunny.9 mph56%30.07 "Hg10 mi
2:50 pm68 °FSunny.9 mph56%30.09 "Hg10 mi
2:20 pm68 °FSunny.8 mph60%30.09 "Hg10 mi
1:50 pm68 °FPassing clouds.8 mph60%30.09 "HgN/A
1:20 pm66 °FPassing clouds.9 mph60%30.09 "HgN/A
12:50 pm66 °FPassing clouds.9 mph56%30.09 "HgN/A
12:20 pm64 °FPassing clouds.10 mph60%30.12 "HgN/A
Weather by CustomWeather, © 2017

See weather overviewHow to use our weather pages